This is the latest recevied weather packets stored in our database for station/object F4DYW-13. If no packets are shown the sender has not sent any weather packets the latest 10 day(s).
| Time | Temp. | Humidity | Pressure | Rain* | Wind** | Luminosity | Snow |
|---|---|---|---|---|---|---|---|
| 1778272681 | 18.33° C | 63% | 1018.3 hPa | 0 mm | - | - | - |
| 1778270612 | 18.33° C | 61% | 1017.8 hPa | 0 mm | - | - | - |
| 1778269575 | 18.33° C | 61% | 1017.5 hPa | 0 mm | - | - | - |
| 1778266469 | 18.89° C | 60% | 1016.8 hPa | 0 mm | - | - | - |
| 1778264400 | 18.89° C | 58% | 1016.6 hPa | 0 mm | - | - | - |
| 1778263361 | 18.89° C | 57% | 1016.4 hPa | 0 mm | - | - | - |
| 1778262325 | 18.89° C | 56% | 1016.4 hPa | 0 mm | - | - | - |
| 1778261290 | 18.89° C | 55% | 1016.2 hPa | 0 mm | - | - | - |
| 1778260254 | 18.89° C | 56% | 1016 hPa | 0 mm | - | - | - |
| 1778259219 | 18.89° C | 56% | 1015.9 hPa | 0 mm | - | - | - |
| 1778258183 | 19.44° C | 56% | 1015.9 hPa | 0 mm | - | - | - |
| 1778256112 | 19.44° C | 55% | 1015.9 hPa | 0 mm | - | - | - |
| 1778253005 | 19.44° C | 55% | 1015.6 hPa | 0 mm | - | - | - |
| 1778251970 | 19.44° C | 56% | 1015.6 hPa | 0 mm | - | - | - |
| 1778250934 | 19.44° C | 55% | 1015.7 hPa | 0 mm | - | - | - |
| 1778248863 | 19.44° C | 56% | 1016.2 hPa | 0 mm | - | - | - |
| 1778247827 | 19.44° C | 58% | 1016.2 hPa | 0 mm | - | - | - |
| 1778246792 | 19.44° C | 60% | 1016.2 hPa | 0 mm | - | - | - |
| 1778242649 | 18.89° C | 60% | 1016.2 hPa | 0 mm | - | - | - |
| 1778239546 | 18.89° C | 62% | 1016.4 hPa | 0 mm | - | - | - |
| 1778236436 | 18.33° C | 64% | 1016.8 hPa | 0 mm | - | - | - |
| 1778234365 | 18.33° C | 65% | 1017.1 hPa | 0 mm | - | - | - |
| 1778233331 | 18.33° C | 65% | 1017.1 hPa | 0 mm | - | - | - |
| 1778232293 | 18.33° C | 65% | 1017.3 hPa | 0 mm | - | - | - |
| 1778230222 | 17.78° C | 66% | 1017.4 hPa | 0 mm | - | - | - |
* Rain latest hour (hover to see other rain measurements)
** Current wind speed in m/s (hover to see current wind gust speed)